Simultaneous Nadir Overpasses (SNOs) Predictions

Prediction of SNOs between METOP-C and LANDSAT-8 Satellite Orbit:

Table of predicted SNOs for the next 14.0 days since TLE Epoch: 12/9/2023
Index Date (METOP-C) Time (METOP-C) Lat,Lon (METOP-C) SZA (METOP-C ) Date (LANDSAT-8) Time (LANDSAT-8) Lat,Lon (LANDSAT-8) SZA (LANDSAT-8 ) Distance(km) Time Diff (sec)
1 12/11/2023 13:16:50 -81.12,-159.67 73.83 12/11/2023 13:17:40 -81.11,-159.69 73.81 0.54 50
2 12/11/2023 14:07:29 81.14, 8.34 106.26 12/11/2023 14:07:05 81.14, 8.39 106.26 0.92 24
3 12/14/2023 08:51:12 -81.12, -93.27 73.66 12/14/2023 08:51:57 -81.12, -93.19 73.64 1.41 45
4 12/14/2023 09:41:51 81.14, 74.77 106.43 12/14/2023 09:41:22 81.15, 74.87 106.43 1.75 29
5 12/17/2023 04:25:34 -81.11, -26.94 73.57 12/17/2023 04:26:14 -81.11, -26.84 73.54 1.61 40
6 12/17/2023 05:16:13 81.14, 141.13 106.53 12/17/2023 05:15:39 81.14, 141.18 106.52 0.89 34
7 12/19/2023 23:59:54 -81.12, 39.71 73.49 12/20/2023 00:00:29 -81.12, 39.71 73.48 0.07 35
8 12/20/2023 00:50:33 81.15,-152.19 106.61 12/20/2023 00:49:54 81.14,-152.28 106.58 1.65 39
9 12/22/2023 19:34:16 -81.12, 105.93 73.53 12/22/2023 19:34:45 -81.12, 106.12 73.50 3.27 29



Historial Predications of SNOs between METOP-C and LANDSAT-8
